Bakanas

Kazakhstan     44˚48′24″N   76˚16′27″E
temp.,
°C
wind,
m/s
gust,
m/s
humid.,
%
clouds,
%
prec.,
mm/h
press.,
hPa
HPBL,
m
28 november, sat
sat2800:00+1˚nne2250100 0.0 102522
03:00+1˚nnw2344100 0.0 102439
06:00+1˚nnw4646100 0.0 1025100
09:00+2˚nw2346100 0.1 102780
12:00+4˚wsw91683100 2.3 1034981
15:00+3˚w101463100 0.1 10371248
18:00+1˚w61177100 0.1 1041643
21:00wsw51087100 0.0 1041435
29 november, sun
sun2900:00−1˚wsw5128798 0.0 1042491
03:00−2˚wsw497671 0.0 1042363
06:00−2˚wsw5107865 0.0 1043452
09:00−2˚wsw611760 0.0 1043759
12:00w9125620 0.0 10431163
15:00w811480 0.0 10431135
18:00−2˚w510600 0.0 1043607
21:00−3˚w59680 0.0 1043461
30 november, mon
mon3000:00−5˚wnw36810 0.0 1042266
03:00−6˚wnw348629 0.0 1043225
06:00−7˚wnw348347 0.0 1043169
09:00−9˚nw337937 0.0 1043158
12:00−6˚nw235919 0.0 1042412
15:00−4˚n22520 0.0 1041598
18:00−5˚nne44580 0.0 1041236
21:00−6˚ne46630 0.0 1040244
1 december, tue
tue100:00−7˚ne57780 0.0 1040248
03:00−7˚ne57830 0.0 1040229
06:00−8˚ne69840 0.0 1040256
09:00−7˚ene610790 0.0 1040296
12:00−4˚ene79602 0.0 1039392
15:00−3˚ene795433 0.0 1038451
18:00−5˚ene7117167 0.0 1038381
21:00−5˚ene61080100 0.0 1038323
2 december, wed
wed200:00−6˚ene5879100 0.0 1038279
03:00−8˚ne578039 0.0 1038194
06:00−8˚ne458067 0.0 1038152
09:00−8˚ne347488 0.0 1038118
12:00−4˚ne234677 0.0 1037254
15:00−2˚ene4435100 0.0 1035298
18:00−3˚ene3437100 0.0 1034131
21:00−3˚ene343899 0.0 1033108